Temperature
14 14 13 14 14 14 14 14 14 14 14 14 14 14 14 14 15 15 15 15 15 15 15 15 15 15 15 15 15 15 15 15 16 16 16 16 16 16
13 13 13 13 13 14 14 14 14 14 14 14 14 14 14 14 14 14 14 15 15 15 15 15 15 15 15 14 14 14 14 14 15 15 15 15 15 16
13 13 13 13 13 13 13 14 14 14 14 13 13 13 14 14 13 13 14 14 14 15 15 15 14 14 14 14 14 13 13 14 14 14 15 15 15 15
12 13 13 13 13 13 13 13 13 14 13 13 13 13 13 13 13 13 13 13 14 14 14 14 13 13 13 13 13 13 13 13 13 13 14 14 15 15
12 12 12 13 13 13 13 13 13 13 13 13 13 13 13 13 13 13 13 13 13 13 13 13 12 12 13 13 13 13 13 13 13 13 13 14 14 15
12 12 12 13 13 13 13 13 13 13 13 13 13 13 12 12 13 13 12 12 12 12 12 12 12 12 12 12 12 12 12 12 12 12 13 13 14 14
12 12 12 12 12 12 12 13 13 13 13 13 13 12 12 12 12 12 12 12 12 12 12 12 12 12 12 12 12 12 12 12 12 12 13 13 13 13
12 12 12 12 12 12 12 12 12 12 12 12 12 12 11 11 11 12 11 11 11 11 12 12 12 12 11 11 11 11 11 11 12 12 13 13 13 13
12 12 12 12 12 11 11 11 12 12 12 12 12 11 11 11 11 11 11 11 10 10 11 11 12 11 11 11 11 11 11 11 11 12 12 13 13 13
11 11 12 11 11 11 11 11 11 11 11 11 11 11 11 11 11 11 11 11 10 10 10 11 11 11 10 10 10 10 10 10 10 11 11 12 13 13
11 11 12 12 11 11 11 11 11 11 11 11 11 11 10 10 10 10 10 10 10 10 10 10 10 11 10 10 10 10 10 10 10 10 10 11 12 12
11 11 11 11 11 11 11 11 11 11 11 11 11 10 10 10 10 10 10 10 9 9 9 9 9 10 10 9 9 9 9 10 9 9 10 10 10 11
11 11 11 11 11 11 11 11 10 10 10 10 10 10 9 9 9 9 9 9 9 9 9 9 9 9 9 9 8 8 9 9 9 9 9 9 10 10
11 11 11 10 10 10 10 9 9 9 9 9 9 9 9 9 8 8 8 8 8 8 8 8 8 8 8 8 8 8 8 8 8 9 9 9 9 9
11 11 10 10 9 9 9 9 9 9 8 8 8 8 8 8 8 8 8 8 8 8 8 8 8 8 8 8 8 8 8 7 8 8 8 8 8 9
10 10 10 9 9 9 9 9 8 8 8 7 7 7 8 8 8 8 8 7 7 7 7 7 7 7 7 7 7 7 7 7 7 7 7 8 8 8
10 10 10 9 9 9 9 9 8 8 8 7 7 7 7 7 7 7 7 7 7 7 7 7 7 7 7 7 7 7 7 7 7 7 7 7 7 7
10 10 10 9 9 9 9 9 8 8 8 7 7 7 7 7 7 7 7 7 6 6 6 6 7 7 7 6 7 6 7 7 7 7 7 7 6 6
10 10 10 10 10 10 9 9 9 8 8 7 7 7 7 7 7 7 7 7 6 6 6 6 6 6 6 6 6 6 6 6 6 6 6 6 6 6
10 10 10 10 10 10 9 9 9 9 8 7 7 7 7 7 7 6 6 6 6 6 6 6 6 6 6 6 6 6 6 6 6 6 5 5 5 5
10 10 10 10 10 10 10 9 9 9 8 8 7 7 7 7 7 7 6 6 6 6 6 6 5 6 6 6 6 6 5 5 5 5 5 5 5 5
10 10 10 10 10 10 10 9 9 9 8 8 8 7 7 7 7 7 6 6 6 6 5 5 5 5 5 6 5 5 5 5 5 5 4 4 4 3
10 10 10 10 10 10 10 10 9 9 9 8 8 8 7 7 7 7 6 6 6 6 5 5 5 5 5 5 5 5 5 4 4 4 4 4 3 3
Wind_Speed
7 7 5 3 2 2 2 3 4 2 2 3 3 4 4 3 3 3 3 5 7 8 7 5 6 6 6 5 5 6 8 9 10 10 12 13 16 19
3 5 4 2 2 2 3 3 3 4 2 1 2 3 4 4 7 7 8 9 9 10 8 5 4 6 7 8 9 9 10 11 12 13 14 16 18 19
3 4 5 5 4 3 4 4 3 3 3 2 4 5 7 6 5 6 8 8 9 14 9 4 5 6 8 9 10 11 12 12 12 13 14 17 19 22
5 6 7 7 6 5 5 5 4 3 4 6 5 6 6 5 5 5 5 7 8 14 12 8 6 6 6 8 10 11 12 12 13 14 16 18 19 22
8 9 8 9 9 7 7 6 5 6 6 6 4 3 3 3 4 4 5 5 6 11 13 11 9 9 9 10 10 11 11 12 14 16 17 18 19 21
8 9 8 8 8 8 7 7 8 9 7 6 4 4 4 3 4 4 4 4 4 6 7 7 7 7 8 10 11 12 13 14 15 16 16 17 19 20
10 10 10 11 11 8 7 7 8 7 6 6 4 5 5 5 5 4 4 4 3 3 4 4 3 4 4 8 11 15 15 16 16 16 16 16 17 19
10 9 9 9 11 14 15 13 10 7 6 4 3 4 4 4 4 4 4 5 4 5 4 4 3 4 4 4 10 14 16 17 18 18 18 17 17 17
9 9 9 9 11 10 13 13 12 12 7 5 4 3 3 3 4 5 5 2 1 4 3 4 4 4 5 5 9 12 15 18 18 19 19 19 18 17
8 9 9 9 8 10 10 10 9 8 7 4 3 2 2 0 1 2 1 2 3 3 3 3 4 4 4 4 8 11 14 16 18 18 19 18 17 14
7 8 10 10 13 15 12 10 10 9 10 14 13 10 10 9 6 6 6 5 3 4 3 3 4 4 4 4 7 14 16 16 17 17 18 17 15 10
6 7 11 12 14 14 11 10 10 7 8 10 11 10 8 8 10 6 4 4 2 3 4 4 5 5 5 4 5 8 10 14 17 16 17 17 15 6
6 4 5 13 14 14 12 8 7 6 7 9 8 7 7 7 8 7 5 4 4 2 4 3 4 5 4 4 4 5 6 7 8 10 14 16 16 10
7 5 5 11 13 12 10 11 13 10 7 7 7 6 6 5 5 6 6 6 4 3 4 4 3 3 4 4 4 5 5 6 7 9 10 14 12 13
6 9 8 10 10 7 10 12 10 7 7 6 5 4 3 3 4 5 7 6 7 9 11 7 4 3 4 3 4 5 5 5 7 7 10 12 12 11
7 7 7 6 6 5 7 7 5 6 6 5 3 3 4 5 5 5 5 5 6 6 8 11 7 5 4 4 4 5 5 6 6 6 6 8 9 9
7 4 2 2 3 3 4 4 4 5 5 4 5 5 5 5 4 4 4 4 5 4 6 7 6 5 3 3 4 5 5 5 6 7 5 6 7 8
8 4 3 3 4 5 5 3 3 5 4 4 4 4 4 4 3 4 4 4 4 4 4 5 6 7 7 4 4 4 5 5 5 7 6 6 8 8
5 4 4 5 5 6 6 5 4 4 4 4 4 4 4 3 2 2 3 4 4 4 4 4 5 5 5 5 7 6 4 5 6 6 6 6 6 6
4 5 5 5 5 7 8 6 5 5 4 4 3 3 3 3 2 1 2 2 3 3 4 5 5 3 1 2 3 5 7 4 4 5 6 5 4 5
5 5 5 5 5 7 9 8 7 6 5 5 4 4 4 3 2 1 2 4 4 3 4 4 5 5 0 2 3 5 5 7 6 4 4 4 5 6
7 7 6 6 6 8 9 8 7 6 6 5 5 5 4 3 4 4 4 4 3 3 1 3 5 5 5 5 3 4 5 6 8 12 12 7 3 3
8 7 6 7 7 8 8 9 9 7 6 6 6 5 4 3 4 5 5 5 4 3 2 3 5 5 4 4 3 3 4 5 5 6 6 8 8 6
Wind_Direction
213 205 199 192 171 161 149 139 133 108 59 349 5 358 5 14 30 29 349 323 317 309 302 313 335 343 346 340 316 291 276 267 264 263 261 259 254 249
182 173 161 134 130 144 140 129 133 136 117 329 358 349 2 10 19 19 11 3 347 330 308 304 336 349 347 338 326 310 293 279 269 261 256 254 253 253
96 127 126 119 122 129 122 125 126 120 118 36 17 13 26 20 14 23 30 25 7 2 354 6 22 11 354 337 324 311 300 293 287 280 271 262 256 252
103 103 107 110 99 91 89 90 95 105 113 91 43 23 19 12 21 31 29 28 13 17 33 53 60 43 12 347 332 318 305 294 287 282 277 269 262 257
102 104 105 103 92 87 84 84 81 82 93 99 69 15 13 7 6 18 36 24 23 34 44 54 53 43 30 13 360 349 331 308 291 282 278 275 270 263
89 88 86 92 96 92 85 84 90 91 87 89 72 27 15 347 19 17 13 7 16 26 32 28 23 18 14 9 3 355 344 330 315 301 292 286 280 272
79 73 69 77 83 84 87 84 89 93 87 80 64 38 19 14 2 351 6 350 348 5 356 345 339 337 339 352 358 352 345 337 329 322 312 301 292 282
87 75 67 63 78 78 78 76 84 95 96 88 73 57 24 5 354 8 14 26 357 341 351 320 326 320 314 331 347 351 348 344 338 332 324 314 305 296
89 82 76 66 72 79 72 66 61 64 81 123 96 68 45 355 12 29 28 33 338 313 348 315 323 316 305 310 334 342 343 345 345 341 333 322 312 302
99 101 92 72 73 83 72 57 43 34 37 64 108 123 141 104 100 102 97 18 317 324 25 346 317 310 307 317 336 340 339 342 345 345 339 328 319 308
88 91 95 85 80 81 76 64 47 29 40 60 71 79 81 72 70 58 41 46 10 321 354 11 319 315 319 328 346 351 343 338 338 340 342 339 334 321
77 72 82 91 84 82 80 74 61 35 43 54 49 39 39 42 51 62 75 77 52 345 328 1 339 346 340 331 351 356 353 345 341 340 346 352 355 352
113 97 88 98 95 90 86 80 82 83 65 64 54 39 29 27 27 32 45 90 88 15 318 1 359 356 355 325 334 343 351 349 353 351 350 357 8 18
144 146 136 120 111 101 88 91 89 82 72 64 55 39 28 19 16 31 38 48 63 49 357 28 30 2 12 3 333 324 331 347 357 3 7 5 9 17
153 161 160 137 109 87 83 92 90 86 79 72 58 32 3 5 25 33 27 30 35 36 32 34 43 33 48 18 341 335 334 339 353 5 16 22 21 18
138 163 163 135 96 88 80 82 88 104 106 99 80 34 25 35 37 33 33 26 35 8 6 21 26 43 37 17 25 3 353 348 342 349 3 18 24 28
139 116 104 104 105 91 91 94 94 96 93 87 75 55 41 45 30 22 41 49 51 16 354 350 353 14 43 42 24 2 351 350 347 345 356 12 20 24
135 137 163 182 172 158 153 144 120 113 118 113 94 79 65 59 35 15 39 54 48 23 1 347 356 11 14 14 39 16 1 348 341 355 10 19 20 20
142 158 176 196 193 168 162 160 156 147 139 128 115 104 90 81 64 29 25 41 41 29 0 353 19 39 31 357 331 11 21 354 360 7 11 22 25 23
169 171 185 195 178 162 164 164 158 150 140 144 149 140 123 120 97 47 34 47 56 42 23 16 15 9 329 255 288 323 4 23 24 13 358 2 14 17
183 181 183 182 175 166 166 167 165 165 158 156 173 183 168 148 141 115 91 84 94 75 45 358 312 325 220 56 19 345 339 8 50 52 15 11 4 6
183 186 188 182 173 169 167 170 172 172 165 162 180 196 194 168 156 143 128 122 122 121 75 339 345 9 32 43 13 330 334 345 11 38 45 57 68 22
183 184 187 183 177 174 174 178 181 186 183 175 181 191 187 174 163 148 141 144 145 132 77 21 6 11 17 33 28 4 359 354 355 14 12 35 76 68
Height
1447 1450 1452 1455 1458 1459 1459 1460 1463 1464 1466 1467 1467 1468 1468 1468 1466 1465 1464 1463 1463 1463 1463 1462 1462 1462 1462 1463 1463 1465 1466 1467 1468 1469 1471 1473 1474 1476
1443 1445 1448 1452 1455 1457 1458 1460 1462 1464 1465 1467 1467 1467 1467 1466 1464 1463 1461 1460 1460 1460 1460 1459 1459 1459 1459 1458 1458 1459 1461 1461 1462 1462 1463 1464 1466 1467
1441 1443 1446 1450 1453 1456 1458 1460 1462 1463 1464 1466 1466 1467 1466 1465 1464 1462 1460 1458 1457 1457 1456 1456 1456 1457 1457 1456 1455 1455 1456 1455 1455 1455 1455 1456 1456 1458
1442 1444 1447 1450 1453 1456 1458 1460 1461 1463 1464 1465 1466 1466 1466 1465 1464 1462 1460 1458 1456 1455 1454 1453 1454 1455 1455 1454 1453 1452 1451 1450 1450 1449 1449 1448 1448 1448
1444 1446 1449 1452 1454 1456 1458 1460 1461 1463 1465 1465 1467 1467 1466 1465 1464 1463 1462 1460 1457 1455 1454 1453 1454 1454 1453 1452 1451 1449 1447 1446 1445 1443 1441 1439 1438 1438
1447 1449 1452 1454 1455 1456 1458 1460 1462 1464 1465 1466 1467 1467 1466 1466 1465 1464 1462 1461 1459 1457 1456 1455 1455 1453 1452 1450 1449 1446 1444 1442 1439 1437 1433 1430 1429 1428
1450 1452 1455 1456 1457 1458 1459 1461 1463 1464 1465 1466 1467 1467 1467 1467 1466 1465 1464 1462 1461 1460 1458 1457 1456 1454 1451 1449 1446 1443 1440 1436 1433 1430 1427 1424 1421 1418
1454 1457 1459 1460 1460 1460 1461 1462 1464 1465 1466 1467 1467 1468 1468 1468 1468 1467 1465 1464 1463 1463 1460 1459 1456 1453 1450 1447 1444 1441 1437 1433 1429 1425 1422 1418 1414 1410
1458 1460 1461 1461 1462 1462 1463 1464 1465 1466 1467 1467 1468 1469 1469 1469 1469 1468 1467 1466 1465 1464 1462 1459 1456 1453 1450 1447 1443 1439 1434 1430 1425 1421 1417 1412 1408 1404
1461 1462 1462 1463 1464 1464 1464 1465 1466 1467 1468 1468 1469 1470 1470 1470 1470 1469 1468 1467 1466 1464 1461 1459 1456 1453 1451 1447 1442 1438 1433 1429 1424 1419 1414 1408 1402 1398
1462 1462 1463 1464 1464 1464 1465 1466 1467 1468 1468 1469 1470 1470 1471 1470 1470 1469 1467 1466 1464 1463 1461 1459 1455 1452 1450 1446 1442 1438 1433 1429 1424 1419 1413 1405 1399 1394
1463 1464 1465 1465 1465 1465 1466 1467 1468 1469 1470 1471 1471 1471 1471 1470 1469 1467 1466 1465 1463 1462 1461 1459 1456 1452 1449 1446 1442 1438 1434 1430 1425 1419 1413 1406 1399 1393
1465 1465 1466 1466 1466 1466 1467 1468 1470 1471 1472 1472 1472 1472 1471 1470 1469 1468 1467 1466 1464 1463 1462 1460 1457 1453 1451 1448 1444 1440 1436 1431 1426 1420 1414 1408 1402 1396
1465 1466 1466 1467 1467 1468 1469 1470 1471 1472 1472 1472 1472 1472 1471 1470 1470 1469 1468 1467 1465 1465 1463 1461 1458 1455 1452 1449 1446 1443 1439 1434 1429 1423 1416 1410 1405 1400
1465 1466 1467 1468 1469 1470 1470 1471 1471 1471 1471 1471 1471 1472 1472 1471 1471 1471 1470 1468 1467 1465 1464 1462 1460 1457 1454 1451 1448 1445 1441 1437 1432 1426 1420 1414 1409 1405
1465 1466 1468 1469 1470 1471 1471 1471 1471 1471 1472 1472 1472 1472 1472 1472 1471 1471 1470 1469 1467 1466 1465 1462 1460 1458 1455 1453 1450 1447 1444 1440 1435 1430 1425 1420 1415 1412
1463 1465 1467 1469 1470 1471 1471 1472 1472 1472 1472 1472 1472 1472 1473 1473 1472 1472 1471 1470 1468 1467 1466 1463 1460 1457 1455 1454 1451 1449 1447 1443 1439 1434 1430 1425 1421 1418
1462 1463 1466 1468 1470 1471 1471 1472 1472 1472 1472 1472 1472 1473 1473 1474 1474 1473 1472 1471 1469 1468 1466 1464 1462 1460 1457 1455 1454 1451 1448 1445 1442 1438 1434 1430 1426 1424
1460 1462 1465 1467 1468 1469 1470 1471 1472 1472 1472 1472 1472 1473 1474 1475 1475 1474 1473 1472 1470 1469 1468 1466 1464 1461 1459 1457 1456 1453 1450 1447 1444 1441 1438 1434 1432 1429
1457 1460 1463 1464 1465 1467 1468 1469 1470 1471 1472 1473 1473 1473 1474 1475 1475 1474 1473 1472 1471 1470 1468 1467 1464 1462 1460 1459 1457 1455 1452 1449 1446 1444 1441 1438 1436 1433
1453 1456 1459 1461 1463 1464 1466 1467 1469 1470 1471 1472 1472 1473 1473 1473 1474 1473 1472 1472 1471 1470 1468 1467 1465 1463 1461 1459 1457 1455 1453 1451 1448 1445 1443 1440 1437 1434
1449 1452 1455 1458 1460 1462 1463 1465 1467 1469 1470 1470 1471 1472 1472 1472 1472 1472 1471 1471 1470 1469 1468 1467 1465 1462 1460 1458 1457 1455 1454 1452 1450 1447 1443 1441 1439 1436
1444 1447 1451 1454 1457 1459 1461 1463 1465 1467 1468 1469 1469 1470 1471 1471 1470 1470 1470 1469 1469 1468 1467 1466 1464 1462 1460 1458 1457 1456 1454 1452 1450 1447 1444 1442 1441 1439